Погода в Шихазанах

Россия / Чувашская Республика     55°33′41″N   47°23′01″E
темп.,
°C
ветер,
м/с
пор.,
м/с
влажн.,
%
обл.,
%
осадки,
мм/ч
давл.,
гПа
погр.,
м
18 мая, вт
вт1800:00+17св4776100 3.1 1016102
03:00+16зюз017875 3.1 101611
06:00+18в357910 0.0 1018187
09:00+22в566921 0.0 1017536
12:00+26вюв45585 0.0 1017961
15:00+27вюв55525 0.0 10171284
18:00+24вюв47695 0.0 1016237
21:00+19в412825 0.0 1017230
19 мая, ср
ср1900:00+17вюв513765 0.0 1017280
03:00+15вюв4127549 0.0 1017232
06:00+17вюв613766 0.0 1017357
09:00+21вюв710625 0.0 1017612
12:00+23вюв89535 0.0 1017965
15:00+24вюв79530 0.0 10161161
18:00+22вюв612630 0.0 1016401
21:00+18вюв514730 0.0 1016257
20 мая, чт
чт2000:00+17вюв515755 0.0 1016334
03:00+16юв515792 0.0 1016334
06:00+17юв613763 0.0 1016437
09:00+21юв811620 0.0 1016719
12:00+23юв811540 0.0 10161473
15:00+24юв711566 0.0 10151954
18:00+21юв7145613 0.0 1014579
21:00+15ююв128688 0.0 101654
21 мая, пт
пт2100:00+16ююв4980100 0.0 1015397
03:00+15ююв598578 0.0 1016354
06:00+15ю5108717 0.0 1016419
09:00+19ююз68640 0.0 10171128
12:00+22ююз685399 0.1 10172067
15:00+20юз6962100 0.1 1018923
18:00+19юз5969100 0.2 1018476
21:00+16юз398299 0.3 1019167
22 мая, сб
сб2200:00+16юз31083100 0.0 1020309
03:00+13з239445 0.0 102164
06:00+15зюз237999 0.0 1022216
09:00+18ююз237149 0.0 1022660
12:00+20юз71075100 0.7 1022972
15:00+21юз1473100 1.2 1022718
18:00+19св3583100 0.0 1021178
21:00+15в4896100 0.0 1020150